sat.trackr.live / text

‹ back to catalog

STARLINK-3068

NORAD 49154 · 2021-082AA

PAYLOAD ACTIVE UNKNOWN

§ Identity

Operator
Country
US
Launch date
2021-09-14
Launch site
AFWTR
Launch vehicle
Mass (kg)
RCS (m²)

Purposes: comms

External: N2YO · Heavens-Above · Gunter

§ Orbital elements

Epoch: 2026-05-25T03:23:22.060320Z

Period
96.16 min
Inclination
70.0002°
Eccentricity
0.0002974
Mean motion
14.97521457 rev/d
Perigee alt
572.5 km
Apogee alt
576.6 km
Semi-major
6,952.7 km
B*
1.3132e-5
RAAN
82.7142°
Arg perigee
264.3419°
Mean anomaly
95.7400°
Rev number
25,897

§ Raw data

STARLINK-30681 49154U 21082AA  26145.14122755  .00000061  00000+0  13132-4 0  99912 49154  70.0002  82.7142 0002974 264.3419  95.7400 14.97521457258970

JSON: /api/v1/satellites/49154 · /tle

For live sub-satellite position, see the globe view (requires WebGL).

§ Visibility from observer

Set your observer location to see the next 7 days of passes ≥ 10°. The values pass through the URL so the page stays shareable.

No JS? Fill the form by hand. The geolocation button needs JavaScript.